AL3A Weather Reports


Display with metric or nautical units.
time (UTC)temp
F
wind
direction
speed
MPH
gust
MPH
rain 1hr
in
rain 24hr
in
rain mn
in
humidity
%
barometer
mb
20200410101553 20 231 0.0 1.0 0.00 0.01 0.00 90 994.3
20200410101053 21 231 0.0 0.0 0.00 0.01 0.00 88 994.2
20200410100553 21 231 0.0 0.0 0.00 0.01 0.00 90 994.3
20200410100053 21 231 0.0 1.0 0.00 0.01 0.00 89 994.2
20200410095553 21 231 0.0 0.0 0.00 0.01 0.00 89 994.2
20200410095053 21 231 0.0 2.0 0.00 0.01 0.00 89 994.2
20200410094553 21 229 0.0 2.0 0.00 0.01 0.00 90 994.2
20200410094053 21 259 1.0 1.0 0.00 0.01 0.00 89 994.3
20200410093553 21 273 0.0 0.0 0.00 0.01 0.00 88 994.2
20200410093053 21 273 0.0 0.0 0.00 0.01 0.00 87 994.2
20200410092553 21 273 0.0 0.0 0.00 0.01 0.00 88 994.1
20200410092054 22 273 0.0 0.0 0.00 0.01 0.00 87 994.2
20200410091553 22 273 0.0 2.0 0.00 0.01 0.00 89 994.2
20200410091053 22 275 2.0 3.0 0.00 0.01 0.00 89 994.1
20200410090553 22 275 0.0 3.0 0.00 0.01 0.00 89 994.2
20200410090053 22 186 1.0 2.0 0.00 0.01 0.00 90 994.2
20200410085553 22 198 2.0 2.0 0.00 0.01 0.00 90 994.3
20200410085053 22 198 0.0 1.0 0.00 0.01 0.00 88 994.3
20200410084553 22 198 0.0 0.0 0.00 0.01 0.00 89 994.2
20200410084053 22 198 0.0 0.0 0.00 0.01 0.00 88 994.3
20200410083553 22 198 0.0 2.0 0.00 0.01 0.00 88 994.3
20200410083053 22 188 0.0 0.0 0.00 0.01 0.00 88 994.2
20200410082553 22 188 0.0 0.0 0.00 0.01 0.00 87 994.2
20200410082053 23 188 0.0 0.0 0.00 0.01 0.00 87 994.2
20200410081553 23 188 0.0 0.0 0.00 0.01 0.00 87 994.2
20200410081053 23 188 0.0 0.0 0.00 0.01 0.00 89 994.2
20200410080553 23 188 0.0 0.0 0.00 0.01 0.00 88 994.2
20200410080432 23 188 0.0 1.0 0.00 0.01 0.00 87 994.2
20200410075553 23 188 0.0 0.0 0.00 0.01 0.00 86 994.1
20200410075053 23 188 0.0 0.0 0.00 0.01 0.00 85 994.2
20200410074553 24 188 0.0 1.0 0.00 0.01 0.00 85 994.2
20200410074053 24 188 1.0 2.0 0.00 0.01 0.00 84 994.2
20200410073553 25 187 0.0 0.0 0.00 0.01 0.00 84 994.3
20200410073053 25 188 0.0 0.0 0.00 0.02 0.00 86 994.3
20200410072553 25 188 0.0 0.0 0.00 0.02 0.00 87 994.3
20200410072053 25 188 0.0 0.0 0.00 0.02 0.00 87 994.3
20200410071553 24 187 0.0 0.0 0.00 0.02 0.00 87 994.3
20200410071053 24 187 0.0 0.0 0.00 0.02 0.00 86 994.3
20200410070553 24 187 0.0 0.0 0.00 0.02 0.00 84 994.3
20200410070053 25 188 0.0 0.0 0.00 0.02 0.00 84 994.3
20200410065553 25 187 0.0 0.0 0.00 0.03 0.00 85 994.2
20200410065053 25 187 0.0 0.0 0.00 0.03 0.00 85 994.2
20200410064553 25 187 0.0 1.0 0.00 0.03 0.00 86 994.3
20200410064053 25 187 1.0 1.0 0.00 0.03 0.00 85 994.2
20200410063553 25 188 0.0 3.0 0.00 0.03 0.00 84 994.3
20200410063101 25 185 0.0 1.0 0.00 0.04 0.00 84 994.2
20200410062553 25 185 0.0 0.0 0.00 0.04 0.00 83 994.1
20200410062053 26 185 0.0 0.0 0.00 0.04 0.00 84 994.1
20200410061553 26 185 0.0 0.0 0.00 0.04 0.00 82 994.0
20200410061053 26 185 0.0 0.0 0.00 0.04 0.00 84 994.1
20200410060553 26 185 0.0 0.0 0.00 0.05 0.00 83 994.0
20200410060053 26 185 0.0 0.0 0.00 0.05 0.00 83 993.9
20200410055554 26 185 0.0 0.0 0.00 0.05 0.00 82 993.7
20200410055053 26 185 0.0 0.0 0.00 0.05 0.00 82 993.7
20200410054553 26 185 0.0 0.0 0.00 0.05 0.00 82 993.7
20200410054053 26 185 0.0 0.0 0.00 0.06 0.00 81 993.7
20200410053553 27 185 0.0 0.0 0.00 0.06 0.00 81 993.7
20200410053053 27 185 0.0 0.0 0.00 0.06 0.00 81 993.8
20200410052553 27 185 0.0 0.0 0.00 0.06 0.00 81 993.7
20200410052053 27 185 0.0 0.0 0.00 0.06 0.00 80 993.8
20200410051553 27 185 0.0 0.0 0.00 0.07 0.00 80 993.8
20200410051053 27 185 0.0 0.0 0.00 0.07 0.00 77 993.9
20200410050553 27 185 0.0 0.0 0.00 0.08 0.00 80 993.9
20200410050053 28 185 0.0 0.0 0.00 0.08 0.00 79 993.9
20200410045553 28 185 0.0 0.0 0.00 0.08 0.00 78 993.8
20200410045053 28 185 0.0 0.0 0.00 0.09 0.00 78 993.8
20200410044553 28 185 0.0 0.0 0.00 0.09 0.00 76 993.9
20200410044053 28 185 0.0 0.0 0.00 0.09 0.00 74 993.8
20200410043553 29 185 0.0 0.0 0.00 0.11 0.00 76 993.9
20200410043053 29 185 0.0 0.0 0.00 0.11 0.00 75 993.9
20200410042553 29 185 0.0 0.0 0.00 0.11 0.00 73 993.9
20200410042053 29 185 0.0 0.0 0.00 0.11 0.00 74 993.9
20200410041553 30 185 0.0 0.0 0.00 0.13 0.00 74 993.9
20200410041053 30 185 0.0 0.0 0.00 0.13 0.00 74 993.9
20200410040553 30 185 0.0 0.0 0.00 0.16 0.00 74 993.8
20200410040053 31 185 0.0 0.0 0.00 0.17 0.00 74 993.9
20200410035553 31 185 0.0 0.0 0.00 0.18 0.00 72 993.8
20200410035053 31 185 0.0 0.0 0.00 0.18 0.00 71 993.8
20200410034553 32 185 0.0 0.0 0.00 0.18 0.00 70 993.8
20200410034053 32 185 0.0 1.0 0.00 0.18 0.00 69 993.8
20200410033553 33 185 0.0 0.0 0.00 0.19 0.00 69 993.8
20200410033053 33 185 0.0 0.0 0.00 0.19 0.00 67 993.8
20200410032553 33 185 0.0 0.0 0.00 0.20 0.00 66 993.5
20200410032053 34 185 0.0 0.0 0.00 0.20 0.00 65 993.5
20200410031553 34 185 0.0 0.0 0.00 0.21 0.00 64 993.5
20200410031053 35 185 0.0 0.0 0.00 0.21 0.00 63 993.5
20200410030553 35 185 0.0 0.0 0.00 0.22 0.00 63 993.3
20200410030147 36 185 0.0 0.0 0.00 0.22 0.00 62 993.3
20200410025553 36 185 0.0 0.0 0.00 0.22 0.00 62 993.1
20200410025053 36 185 0.0 0.0 0.00 0.22 0.00 61 993.1
20200410024553 37 185 0.0 0.0 0.00 0.22 0.00 61 993.1
20200410024053 38 183 0.0 0.0 0.00 0.22 0.00 60 992.9
20200410023553 38 184 0.0 0.0 0.00 0.22 0.00 58 992.9
20200410023053 38 184 0.0 2.0 0.00 0.22 0.00 58 992.7
20200410022553 39 184 0.0 0.0 0.00 0.22 0.00 55 992.7
20200410022053 39 184 0.0 1.0 0.00 0.22 0.00 54 992.6
20200410021553 40 184 0.0 0.0 0.00 0.22 0.00 54 992.5
20200410021054 41 184 0.0 1.0 0.00 0.22 0.00 52 992.5
20200410020553 41 184 0.0 1.0 0.00 0.22 0.00 50 992.5
20200410020053 42 184 0.0 0.0 0.00 0.23 0.00 51 992.5
20200410015553 43 184 0.0 2.0 0.00 0.23 0.00 48 992.5
20200410015053 43 179 0.0 1.0 0.00 0.23 0.00 46 992.3
20200410014553 44 179 0.0 2.0 0.00 0.23 0.00 43 992.2
20200410014053 45 179 0.0 2.0 0.00 0.23 0.00 42 992.2
20200410013553 46 202 3.0 3.0 0.00 0.23 0.00 40 992.1
20200410013053 46 144 1.0 3.0 0.00 0.23 0.00 42 992.0
20200410012553 47 219 4.0 4.0 0.00 0.23 0.00 40 992.1
20200410012053 47 181 0.0 2.0 0.00 0.23 0.00 40 992.1
20200410011553 47 169 2.0 5.0 0.00 0.23 0.00 38 992.1
20200410011053 48 223 3.0 3.0 0.00 0.23 0.00 37 992.0
20200410010553 47 17 0.0 1.0 0.00 0.23 0.00 40 991.8
20200410010053 47 81 0.0 4.0 0.00 0.23 0.00 37 991.8
20200410005553 47 76 0.0 4.0 0.00 0.23 0.00 37 991.8
20200410005053 47 223 0.0 5.0 0.00 0.23 0.00 36 991.9
20200410004553 48 82 0.0 5.0 0.00 0.23 0.00 36 992.0
20200410004053 48 146 0.0 3.0 0.00 0.23 0.00 35 991.8
20200410003553 48 153 1.0 8.0 0.00 0.23 0.00 34 991.8
20200410003053 48 228 1.0 4.0 0.00 0.23 0.00 35 991.9
20200410002553 48 277 2.0 7.0 0.00 0.23 0.00 34 991.8
20200410002053 48 211 6.0 6.0 0.00 0.23 0.00 34 991.8
20200410001553 48 153 5.0 5.0 0.00 0.23 0.00 35 991.8
20200410001053 49 260 1.0 7.0 0.00 0.23 0.00 34 991.8
20200410000554 49 150 4.0 6.0 0.00 0.23 0.00 37 991.8
20200410000053 48 248 0.0 9.0 0.00 0.23 0.00 35 991.8
20200409235553 48 264 6.0 7.0 0.00 0.23 0.00 37 991.8
20200409235053 49 343 0.0 5.0 0.00 0.23 0.00 36 991.8
20200409234553 48 251 1.0 10.0 0.00 0.23 0.00 38 991.9
20200409234053 47 173 3.0 7.0 0.00 0.23 0.00 37 991.9
20200409233553 47 182 2.0 4.0 0.00 0.23 0.00 39 991.9
20200409233053 47 56 2.0 9.0 0.00 0.23 0.00 38 991.8
20200409232553 47 126 4.0 9.0 0.00 0.23 0.00 39 991.8
20200409232053 47 71 2.0 9.0 0.00 0.23 0.00 34 991.9
20200409231553 48 69 6.0 6.0 0.00 0.23 0.00 36 992.0
20200409231053 47 232 0.0 4.0 0.00 0.23 0.00 36 992.0
20200409230553 47 5 4.0 4.0 0.00 0.23 0.00 36 992.0
20200409230053 47 326 0.0 9.0 0.00 0.23 0.00 37 992.0
20200409225558 47 188 5.0 5.0 0.00 0.23 0.00 39 991.9
20200409225053 46 192 2.0 4.0 0.00 0.23 0.00 37 992.0
20200409224553 47 218 1.0 7.0 0.00 0.23 0.00 37 992.0
20200409224053 48 140 9.0 9.0 0.00 0.23 0.00 35 992.0
20200409223553 48 141 10.0 10.0 0.00 0.23 0.00 37 992.1
20200409223053 48 57 2.0 2.0 0.00 0.23 0.00 35 991.9
20200409222553 49 275 4.0 6.0 0.00 0.23 0.00 33 992.0
20200409222053 48 220 3.0 7.0 0.00 0.23 0.00 33 991.9
20200409221553 48 257 1.0 5.0 0.00 0.23 0.00 37 992.1
20200409221053 48 217 8.0 8.0 0.00 0.23 0.00 36 992.1
20200409220553 48 261 9.0 10.0 0.00 0.23 0.00 36 992.1
20200409220053 48 64 3.0 3.0 0.00 0.23 0.00 36 992.0
20200409215553 48 55 3.0 5.0 0.00 0.23 0.00 34 992.2
20200409215053 48 184 2.0 5.0 0.00 0.23 0.00 37 992.2
20200409214553 48 253 4.0 11.0 0.00 0.23 0.00 37 992.1
20200409214053 49 263 3.0 7.0 0.00 0.23 0.00 36 992.2
20200409213553 48 165 2.0 12.0 0.00 0.23 0.00 37 992.1
20200409213053 49 141 0.0 6.0 0.00 0.23 0.00 37 992.2
20200409212553 48 206 4.0 7.0 0.00 0.23 0.00 38 992.2
20200409212053 48 34 1.0 10.0 0.00 0.23 0.00 42 992.1
20200409211553 47 265 0.0 9.0 0.00 0.23 0.00 40 992.2
20200409211053 47 256 5.0 6.0 0.00 0.23 0.00 40 992.1
20200409210553 46 140 1.0 8.0 0.00 0.23 0.00 42 992.2
20200409210053 45 250 3.0 9.0 0.00 0.23 0.00 46 992.1
20200409205053 45 248 14.0 14.0 0.00 0.23 0.00 43 992.2
20200409204553 45 325 8.0 9.0 0.00 0.23 0.00 46 992.2
20200409204053 45 287 0.0 11.0 0.00 0.23 0.00 44 992.3
20200409203553 45 320 3.0 5.0 0.00 0.23 0.00 45 992.3
20200409203053 45 288 5.0 10.0 0.00 0.23 0.00 45 992.3
20200409202649 45 234 3.0 6.0 0.00 0.23 0.00 43 992.4
20200409202053 45 257 3.0 9.0 0.00 0.23 0.00 42 992.4
20200409201553 45 248 9.0 9.0 0.00 0.23 0.00 42 992.4
20200409201053 45 243 8.0 12.0 0.00 0.23 0.00 44 992.5
20200409200553 43 40 1.0 3.0 0.00 0.23 0.00 49 992.5
20200409200053 43 24 0.0 7.0 0.00 0.23 0.00 47 992.6
20200409195553 44 242 2.0 7.0 0.00 0.23 0.00 44 992.6
20200409195053 45 244 8.0 8.0 0.00 0.23 0.00 44 992.6
20200409194553 44 224 7.0 7.0 0.00 0.23 0.00 46 992.7
20200409194053 44 178 2.0 11.0 0.00 0.23 0.00 46 992.8
20200409193553 43 211 9.0 12.0 0.00 0.23 0.00 47 992.6
20200409193053 43 157 1.0 8.0 0.00 0.23 0.00 44 992.7
20200409192553 43 260 3.0 7.0 0.00 0.23 0.00 46 992.7
20200409192053 42 133 2.0 8.0 0.00 0.23 0.00 56 992.7
20200409191553 41 53 1.0 7.0 0.00 0.23 0.00 53 992.8
20200409191053 41 51 4.0 4.0 0.00 0.23 0.00 51 992.7
20200409190553 40 76 2.0 6.0 0.00 0.23 0.00 52 992.8
20200409190053 40 302 3.0 5.0 0.00 0.23 0.00 53 992.8
20200409185553 41 313 5.0 6.0 0.00 0.23 0.00 48 992.8
20200409185053 42 281 2.0 6.0 0.00 0.23 0.00 48 992.9
20200409184640 42 255 2.0 4.0 0.00 0.23 0.00 50 993.0
20200409184053 42 210 4.0 4.0 0.00 0.23 0.00 49 993.0
20200409183552 41 153 3.0 6.0 0.00 0.23 0.00 50 992.8
20200409183053 40 132 4.0 4.0 0.00 0.23 0.00 60 992.8
20200409182553 39 59 1.0 4.0 0.00 0.23 0.00 58 992.8
20200409182053 39 46 3.0 4.0 0.00 0.23 0.00 59 992.8
20200409181553 38 57 3.0 4.0 0.00 0.23 0.00 58 992.9
20200409181053 39 333 3.0 4.0 0.00 0.23 0.00 60 992.9
20200409180553 38 253 2.0 4.0 0.00 0.23 0.00 58 993.1
20200409180053 37 257 2.0 6.0 0.00 0.23 0.00 63 993.1
20200409175552 37 88 0.0 3.0 0.00 0.23 0.00 61 993.1
20200409175053 36 286 2.0 7.0 0.00 0.23 0.00 62 993.1
20200409174553 36 320 0.0 5.0 0.00 0.23 0.00 61 993.2
20200409174052 37 309 3.0 8.0 0.00 0.23 0.00 61 993.2
20200409173553 37 257 5.0 8.0 0.00 0.23 0.00 61 993.1
20200409173052 38 256 4.0 8.0 0.00 0.23 0.00 62 993.2
20200409172552 38 277 6.0 6.0 0.00 0.23 0.00 58 993.1
20200409172053 38 273 3.0 9.0 0.00 0.23 0.00 55 993.1
20200409171553 38 200 5.0 8.0 0.00 0.23 0.00 57 993.0
20200409171053 38 198 5.0 5.0 0.00 0.23 0.00 56 993.0
20200409170553 37 244 9.0 9.0 0.00 0.23 0.00 57 992.8
20200409170053 37 218 6.0 7.0 0.00 0.23 0.00 56 992.8
20200409165553 37 193 3.0 5.0 0.00 0.23 0.00 67 992.7
20200409165053 36 183 1.0 4.0 0.00 0.23 0.00 70 992.6
20200409164553 36 223 3.0 7.0 0.00 0.23 0.00 71 992.6
20200409164053 35 248 5.0 8.0 0.00 0.23 0.00 76 992.5
20200409163553 34 262 7.0 9.0 0.00 0.23 0.00 71 992.5
20200409163052 35 267 9.0 12.0 0.00 0.23 0.00 68 992.4
20200409162553 36 229 4.0 10.0 0.00 0.23 0.00 69 992.3
20200409162053 37 229 3.0 7.0 0.00 0.23 0.00 69 992.2
20200409161553 37 229 1.0 8.0 0.00 0.23 0.00 67 992.1
20200409161053 36 196 2.0 2.0 0.00 0.23 0.00 72 992.0
20200409160553 35 184 0.0 5.0 0.00 0.23 0.00 69 992.0
20200409160053 34 181 0.0 4.0 0.00 0.23 0.00 73 992.0
20200409155553 34 233 2.0 6.0 0.00 0.23 0.00 74 992.0
20200409155052 34 217 2.0 6.0 0.00 0.23 0.00 74 991.8
20200409154553 34 227 3.0 7.0 0.00 0.23 0.00 72 991.8
20200409154052 34 225 2.0 6.0 0.00 0.23 0.00 71 991.7
20200409153619 34 273 0.0 4.0 0.00 0.23 0.00 77 991.7
20200409153052 34 269 2.0 3.0 0.00 0.23 0.00 77 991.6
20200409152552 34 258 1.0 6.0 0.00 0.23 0.00 75 991.6
20200409152052 34 240 2.0 3.0 0.01 0.23 0.00 76 991.5
20200409151552 34 304 0.0 6.0 0.01 0.23 0.00 76 991.6
20200409151053 34 265 0.0 4.0 0.01 0.23 0.00 79 991.6
20200409150553 34 227 3.0 4.0 0.01 0.23 0.00 79 991.5
20200409150052 33 279 6.0 6.0 0.01 0.23 0.00 81 991.4
20200409145552 33 257 0.0 5.0 0.01 0.23 0.00 80 991.5
20200409145052 33 243 4.0 4.0 0.01 0.23 0.00 83 991.6
20200409144553 33 263 3.0 4.0 0.01 0.23 0.00 81 991.6
20200409144053 33 254 4.0 4.0 0.01 0.23 0.00 80 991.5
20200409143554 32 269 0.0 0.0 0.01 0.23 0.00 84 991.4
20200409143052 32 269 0.0 3.0 0.01 0.23 0.00 81 991.4
20200409142553 32 274 2.0 2.0 0.01 0.23 0.00 83 991.4
20200409142053 32 283 1.0 2.0 0.00 0.22 0.00 83 991.4
20200409141553 31 275 2.0 3.0 0.00 0.22 0.00 84 991.2
20200409141053 31 298 2.0 4.0 0.00 0.22 0.00 84 991.3
20200409140552 31 302 3.0 3.0 0.00 0.22 0.00 85 991.3
20200409140053 31 28 0.0 2.0 0.00 0.22 0.00 86 991.3
20200409135552 30 266 1.0 3.0 0.00 0.22 0.00 87 991.3
20200409135053 30 239 1.0 3.0 0.00 0.22 0.00 86 991.3
20200409134553 30 270 2.0 4.0 0.00 0.22 0.00 87 991.4
20200409134052 30 272 0.0 3.0 0.00 0.22 0.00 87 991.3
20200409133553 30 286 0.0 3.0 0.00 0.22 0.00 87 991.1
20200409133053 30 250 0.0 1.0 0.00 0.22 0.00 88 990.9
20200409132552 30 254 0.0 0.0 0.00 0.22 0.00 88 990.8
20200409132053 30 254 0.0 2.0 0.00 0.22 0.00 87 990.8
20200409131553 30 199 0.0 1.0 0.00 0.22 0.00 87 990.6
20200409131052 30 188 0.0 2.0 0.00 0.22 0.00 87 990.4
20200409130553 30 186 0.0 1.0 0.00 0.22 0.00 87 990.4
20200409130052 30 238 0.0 4.0 0.00 0.22 0.00 87 990.4
20200409125553 30 195 1.0 7.0 0.00 0.22 0.00 86 990.3
20200409125053 30 205 0.0 4.0 0.00 0.22 0.00 86 990.2
20200409124553 30 271 3.0 3.0 0.00 0.22 0.00 86 990.0
20200409124053 30 192 0.0 2.0 0.00 0.22 0.00 86 989.9
20200409123552 30 229 1.0 1.0 0.00 0.22 0.00 87 990.1
20200409123052 30 229 0.0 2.0 0.00 0.22 0.00 88 990.0
20200409122552 30 229 0.0 3.0 0.00 0.22 0.00 88 990.0
20200409122052 30 174 0.0 1.0 0.00 0.22 0.00 87 989.9
20200409121552 30 174 0.0 2.0 0.00 0.22 0.00 85 989.8
20200409121052 30 175 0.0 1.0 0.00 0.22 0.00 86 989.7
20200409120552 30 178 0.0 2.0 0.00 0.22 0.00 86 989.6
20200409120053 30 78 1.0 4.0 0.00 0.22 0.00 86 989.5
20200409115552 30 103 1.0 1.0 0.00 0.22 0.00 87 989.5
20200409115052 30 315 4.0 4.0 0.00 0.22 0.00 84 989.5
20200409114552 30 291 0.0 2.0 0.00 0.22 0.00 87 989.5
20200409114052 30 250 0.0 0.0 0.00 0.22 0.00 87 989.6
20200409113552 31 251 0.0 4.0 0.00 0.22 0.00 86 989.7
20200409113053 31 269 4.0 4.0 0.00 0.22 0.00 86 989.7
20200409112553 31 252 2.0 4.0 0.00 0.22 0.00 85 989.6
20200409112052 31 191 2.0 4.0 0.00 0.22 0.00 86 989.4
20200409111553 31 74 3.0 3.0 0.00 0.22 0.00 87 989.5
20200409111053 31 198 0.0 2.0 0.00 0.22 0.00 87 989.5
20200409110553 31 78 1.0 1.0 0.00 0.22 0.00 88 989.5
20200409110053 32 99 0.0 6.0 0.00 0.22 0.00 88 989.6
20200409105552 32 88 3.0 7.0 0.00 0.22 0.00 88 989.4
20200409105053 32 52 3.0 5.0 0.00 0.22 0.00 89 989.4
20200409104552 32 211 0.0 2.0 0.00 0.22 0.00 89 989.4
20200409104053 32 169 0.0 5.0 0.00 0.22 0.00 91 989.5
20200409103553 32 218 0.0 3.0 0.00 0.22 0.00 90 989.4
20200409103053 32 259 3.0 3.0 0.00 0.22 0.00 91 989.3
20200409102553 32 218 0.0 1.0 0.00 0.22 0.00 90 989.3
20200409102052 32 218 0.0 1.0 0.00 0.22 0.00 91 989.4